Simultaneous Nadir Overpasses (SNOs) Predictions

Prediction of SNOs over PacNW region [( 10.00, 139.50) to ( 22.70, 165.60)] between AQUA and NPP Satellites:

Table of predicted SNOs over PacNW region for the next 30.0 days since TLE Epoch: 9/26/2014
Index Date (AQUA) Time (AQUA) AQUA Lat,Lon Date (NPP) Time (NPP) NPP Lat,Lon Distance(km) Time Diff (sec)
1 09/26/2014 15:32:10 10.05, 152.31 09/26/2014 15:29:43 10.02, 152.48 19.40 147
2 10/02/2014 02:39:05 10.11, 162.66 10/02/2014 02:41:32 9.83, 161.47 133.42 147
3 10/04/2014 16:19:15 18.50, 141.83 10/04/2014 16:18:06 18.51, 141.80 4.35 69
4 10/10/2014 03:28:24 10.11, 150.33 10/10/2014 03:31:52 8.30, 149.15 239.00 208
5 10/12/2014 15:31:59 10.03, 152.35 10/12/2014 15:29:47 9.98, 152.50 16.80 132
6 10/18/2014 02:38:42 10.07, 162.75 10/18/2014 02:41:32 9.77, 161.51 139.84 170
7 10/20/2014 16:18:22 20.08, 142.30 10/20/2014 16:17:39 20.13, 142.22 10.46 43




NCC Satellite Simultaneous Nadir Overpasses (SNOs) Prediction Service
